"Period start","avg(HW err(1)/warn(2) (#))","avg(Visibility (m))","avg(Weather code (#))","avg(Precip intensity (mm/h))","min(HW err(1)/warn(2) (#))","max(HW err(1)/warn(2) (#))","std(HW err(1)/warn(2) (#))","med(HW err(1)/warn(2) (#))","min(Visibility (m))","max(Visibility (m))","std(Visibility (m))","med(Visibility (m))","min(Weather code (#))","max(Weather code (#))","std(Weather code (#))","med(Weather code (#))","min(Precip intensity (mm/h))","max(Precip intensity (mm/h))","std(Precip intensity (mm/h))","med(Precip intensity (mm/h))"
2016-07-03 00:00:00,2,49260,0,0.00,2,2,0,2,46086,50000,1339,50000,0,0,0,0,0.00,0.00,0.00,0.00
2016-07-03 00:10:00,2,49954,0,0.00,2,2,0,2,49585,50000,124,50000,0,0,0,0,0.00,0.00,0.00,0.00
2016-07-03 00:20:00,2,49732,0,0.00,2,2,0,2,48706,50000,505,50000,0,0,0,0,0.00,0.00,0.00,0.00
2016-07-03 00:30:00,2,49688,0,0.00,2,2,0,2,47530,50000,745,50000,0,0,0,0,0.00,0.00,0.00,0.00
2016-07-03 00:40:00,2,48339,0,0.00,2,2,0,2,39028,50000,3342,50000,0,0,0,0,0.00,0.00,0.00,0.00
2016-07-03 00:50:00,2,47399,0,0.00,2,2,0,2,33345,50000,5067,50000,0,0,0,0,0.00,0.00,0.00,0.00
2016-07-03 01:00:00,2,49509,0,0.00,2,2,0,2,46640,50000,1062,50000,0,0,0,0,0.00,0.00,0.00,0.00
2016-07-03 01:10:00,2,48273,0,0.00,2,2,0,2,39107,50000,3238,50000,0,0,0,0,0.00,0.00,0.00,0.00
2016-07-03 01:20:00,0,48320,0,0.00,0,2,1,0,40168,50000,3049,50000,0,0,0,0,0.00,0.00,0.00,0.00
2016-07-03 01:30:00,2,49699,0,0.00,0,2,1,2,47218,50000,830,50000,0,0,0,0,0.00,0.00,0.00,0.00
2016-07-03 01:40:00,2,47464,0,0.00,2,2,0,2,40245,50000,3469,49580,0,0,0,0,0.00,0.00,0.00,0.00
2016-07-03 01:50:00,0,47389,0,0.00,0,2,1,0,40717,50000,3642,50000,0,0,0,0,0.00,0.00,0.00,0.00
2016-07-03 02:00:00,0,50000,0,0.00,0,0,0,0,50000,50000,0,50000,0,0,0,0,0.00,0.00,0.00,0.00
2016-07-03 02:10:00,0,49182,0,0.00,0,0,0,0,45101,50000,1530,50000,0,0,0,0,0.00,0.00,0.00,0.00
2016-07-03 02:20:00,0,46760,0,0.00,0,2,1,0,39169,50000,3672,48430,0,0,0,0,0.00,0.00,0.00,0.00
2016-07-03 02:30:00,2,46397,0,0.00,2,2,0,2,42339,50000,2615,46634,0,0,0,0,0.00,0.00,0.00,0.00
2016-07-03 02:40:00,2,46409,0,0.00,2,2,0,2,37206,50000,4146,48422,0,0,0,0,0.00,0.00,0.00,0.00
2016-07-03 02:50:00,2,44050,0,0.00,2,2,0,2,38561,50000,3232,43378,0,0,0,0,0.00,0.00,0.00,0.00
2016-07-03 03:00:00,2,36538,0,0.00,2,2,0,2,24220,50000,7935,35139,0,0,0,0,0.00,0.00,0.00,0.00
2016-07-03 03:10:00,2,42948,0,0.00,2,2,0,2,27841,50000,8738,48405,0,0,0,0,0.00,0.00,0.00,0.00
2016-07-03 03:20:00,2,43903,0,0.00,2,2,0,2,31322,50000,5961,44719,0,0,0,0,0.00,0.00,0.00,0.00
2016-07-03 03:30:00,2,43361,0,0.00,1,2,0,2,32818,50000,5488,45976,0,0,0,0,0.00,0.00,0.00,0.00
2016-07-03 03:40:00,2,36350,0,0.00,2,2,0,2,29801,49751,5889,35760,0,0,0,0,0.00,0.00,0.00,0.00
2016-07-03 03:50:00,2,41957,0,0.00,1,2,0,2,30001,50000,6600,44225,0,0,0,0,0.00,0.00,0.00,0.00
2016-07-03 04:00:00,2,43186,0,0.00,2,2,0,2,28310,50000,6625,44094,0,0,0,0,0.00,0.00,0.00,0.00
2016-07-03 04:10:00,2,35256,0,0.00,2,2,0,2,26416,44472,4870,35500,0,0,0,0,0.00,0.00,0.00,0.00
2016-07-03 04:20:00,2,46670,0,0.00,2,2,0,2,38564,50000,3672,47606,0,0,0,0,0.00,0.00,0.00,0.00
2016-07-03 04:30:00,2,46840,0,0.00,2,2,0,2,28091,50000,6585,50000,0,0,0,0,0.00,0.00,0.00,0.00
2016-07-03 04:40:00,2,46932,0,0.00,2,2,0,2,39917,50000,3581,48440,0,0,0,0,0.00,0.00,0.00,0.00
2016-07-03 04:50:00,2,46064,0,0.00,2,2,0,2,39885,50000,4013,48076,0,0,0,0,0.00,0.00,0.00,0.00
2016-07-03 05:00:00,2,47809,0,0.00,2,2,0,2,40282,50000,3109,50000,0,0,0,0,0.00,0.00,0.00,0.00
2016-07-03 05:10:00,2,49427,0,0.00,2,2,0,2,47787,50000,890,50000,0,0,0,0,0.00,0.00,0.00,0.00
2016-07-03 05:20:00,2,49354,0,0.00,2,2,0,2,46312,50000,1155,50000,0,0,0,0,0.00,0.00,0.00,0.00
2016-07-03 05:30:00,2,49592,0,0.00,2,2,0,2,46717,50000,982,50000,0,0,0,0,0.00,0.00,0.00,0.00
2016-07-03 05:40:00,2,46852,0,0.00,2,2,0,2,41835,50000,3330,48050,0,0,0,0,0.00,0.00,0.00,0.00
2016-07-03 05:50:00,2,47186,0,0.00,2,2,0,2,34618,50000,5513,50000,0,0,0,0,0.00,0.00,0.00,0.00
2016-07-03 06:00:00,2,47862,0,0.00,2,2,0,2,40897,50000,2831,49414,0,0,0,0,0.00,0.00,0.00,0.00
2016-07-03 06:10:00,2,49387,0,0.00,2,2,0,2,45672,50000,1319,50000,0,0,0,0,0.00,0.00,0.00,0.00
2016-07-03 06:20:00,2,48544,0,0.00,2,2,0,2,43679,50000,1860,49159,0,0,0,0,0.00,0.00,0.00,0.00
2016-07-03 06:30:00,2,49580,0,0.00,2,2,0,2,46452,50000,1061,50000,0,0,0,0,0.00,0.00,0.00,0.00
2016-07-03 06:40:00,2,48042,0,0.00,2,2,0,2,43175,50000,2572,49402,0,0,0,0,0.00,0.00,0.00,0.00
2016-07-03 06:50:00,2,49659,0,0.00,2,2,0,2,47965,50000,605,50000,0,0,0,0,0.00,0.00,0.00,0.00
2016-07-03 07:00:00,2,48639,0,0.00,2,2,0,2,44484,50000,1707,49276,0,0,0,0,0.00,0.00,0.00,0.00
2016-07-03 07:10:00,2,45022,0,0.00,2,2,0,2,33405,50000,5737,47616,0,0,0,0,0.00,0.00,0.00,0.00
2016-07-03 07:20:00,2,47252,0,0.00,2,2,0,2,42008,50000,3012,48536,0,0,0,0,0.00,0.00,0.00,0.00
2016-07-03 07:30:00,2,47433,0,0.00,2,2,0,2,42519,50000,2725,48204,0,0,0,0,0.00,0.00,0.00,0.00
2016-07-03 07:40:00,2,49772,0,0.00,2,2,0,2,47717,50000,685,50000,0,0,0,0,0.00,0.00,0.00,0.00
2016-07-03 07:50:00,2,47929,0,0.00,2,2,0,2,41713,50000,2914,50000,0,0,0,0,0.00,0.00,0.00,0.00
2016-07-03 08:00:00,2,48195,0,0.00,0,2,1,2,36549,50000,4021,50000,0,0,0,0,0.00,0.00,0.00,0.00
2016-07-03 08:10:00,1,48891,0,0.00,0,2,1,1,42845,50000,2084,49714,0,0,0,0,0.00,0.00,0.00,0.00
2016-07-03 08:20:00,0,42455,0,0.00,0,2,1,0,29246,50000,8188,45190,0,0,0,0,0.00,0.00,0.00,0.00
2016-07-03 08:30:00,0,48757,0,0.00,0,0,0,0,44977,50000,1857,50000,0,0,0,0,0.00,0.00,0.00,0.00
2016-07-03 08:40:00,0,45274,0,0.00,0,0,0,0,31502,50000,6034,48942,0,0,0,0,0.00,0.00,0.00,0.00
2016-07-03 08:50:00,0,49848,0,0.00,0,0,0,0,48480,50000,456,50000,0,0,0,0,0.00,0.00,0.00,0.00
2016-07-03 09:00:00,0,50000,0,0.00,0,0,0,0,50000,50000,0,50000,0,0,0,0,0.00,0.00,0.00,0.00
2016-07-03 09:10:00,0,48653,0,0.00,0,0,0,0,41010,50000,2714,50000,0,0,0,0,0.00,0.00,0.00,0.00
2016-07-03 09:20:00,0,49961,0,0.00,0,0,0,0,49609,50000,117,50000,0,0,0,0,0.00,0.00,0.00,0.00
2016-07-03 09:30:00,0,49116,0,0.00,0,0,0,0,44398,50000,1749,50000,0,0,0,0,0.00,0.00,0.00,0.00
2016-07-03 09:40:00,0,47412,0,0.00,0,0,0,0,41198,50000,2975,48088,0,0,0,0,0.00,0.00,0.00,0.00
2016-07-03 09:50:00,0,48876,0,0.00,0,0,0,0,44981,50000,1791,50000,0,0,0,0,0.00,0.00,0.00,0.00
2016-07-03 10:00:00,0,49542,0,0.00,0,0,0,0,47751,50000,819,50000,0,0,0,0,0.00,0.00,0.00,0.00
2016-07-03 10:10:00,0,49838,0,0.00,0,0,0,0,48668,50000,399,50000,0,0,0,0,0.00,0.00,0.00,0.00
2016-07-03 10:20:00,0,49604,0,0.00,0,0,0,0,48337,50000,593,49974,0,0,0,0,0.00,0.00,0.00,0.00
2016-07-03 10:30:00,0,49814,0,0.00,0,0,0,0,49273,50000,288,50000,0,0,0,0,0.00,0.00,0.00,0.00
2016-07-03 10:40:00,1,47866,0,0.00,0,2,1,2,44017,50000,2308,49004,0,0,0,0,0.00,0.00,0.00,0.00
2016-07-03 10:50:00,2,49220,0,0.00,0,2,1,2,46741,50000,1262,50000,0,0,0,0,0.00,0.00,0.00,0.00
2016-07-03 11:00:00,2,49573,0,0.00,2,2,0,2,45728,50000,1282,50000,0,0,0,0,0.00,0.00,0.00,0.00
2016-07-03 11:10:00,2,49525,0,0.00,2,2,0,2,45712,50000,1278,50000,0,0,0,0,0.00,0.00,0.00,0.00
2016-07-03 11:20:00,2,48955,0,0.00,2,2,0,2,41441,50000,2552,50000,0,0,0,0,0.00,0.00,0.00,0.00
2016-07-03 11:30:00,2,47051,0,0.00,0,2,1,2,38891,50000,3455,48392,0,0,0,0,0.00,0.00,0.00,0.00
2016-07-03 11:40:00,2,46608,0,0.00,2,2,0,2,34510,50000,5183,50000,0,0,0,0,0.00,0.00,0.00,0.00
2016-07-03 11:50:00,2,48222,0,0.00,2,2,0,2,44096,50000,2108,48846,0,0,0,0,0.00,0.00,0.00,0.00
2016-07-03 12:00:00,2,50000,0,0.00,2,2,0,2,50000,50000,0,50000,0,0,0,0,0.00,0.00,0.00,0.00
2016-07-03 12:10:00,2,49623,0,0.00,2,2,0,2,46226,50000,1132,50000,0,0,0,0,0.00,0.00,0.00,0.00
2016-07-03 12:20:00,2,50000,0,0.00,2,2,0,2,50000,50000,0,50000,0,0,0,0,0.00,0.00,0.00,0.00
2016-07-03 12:30:00,1,50000,0,0.00,0,2,1,2,50000,50000,0,50000,0,0,0,0,0.00,0.00,0.00,0.00
2016-07-03 12:40:00,2,50000,0,0.00,2,2,0,2,50000,50000,0,50000,0,0,0,0,0.00,0.00,0.00,0.00
2016-07-03 12:50:00,2,50000,0,0.00,2,2,0,2,50000,50000,0,50000,0,0,0,0,0.00,0.00,0.00,0.00
2016-07-03 13:00:00,2,50000,0,0.00,2,2,0,2,50000,50000,0,50000,0,0,0,0,0.00,0.00,0.00,0.00
2016-07-03 13:10:00,2,49916,0,0.00,2,2,0,2,49160,50000,252,50000,0,0,0,0,0.00,0.00,0.00,0.00
2016-07-03 13:20:00,2,49492,0,0.00,2,2,0,2,46913,50000,1045,50000,0,0,0,0,0.00,0.00,0.00,0.00
2016-07-03 13:30:00,2,49777,0,0.00,2,2,0,2,47768,50000,670,50000,0,0,0,0,0.00,0.00,0.00,0.00
2016-07-03 13:40:00,2,50000,0,0.00,2,2,0,2,50000,50000,0,50000,0,0,0,0,0.00,0.00,0.00,0.00
2016-07-03 13:50:00,2,50000,0,0.00,2,2,0,2,50000,50000,0,50000,0,0,0,0,0.00,0.00,0.00,0.00
2016-07-03 14:00:00,2,50000,0,0.00,2,2,0,2,50000,50000,0,50000,0,0,0,0,0.00,0.00,0.00,0.00
2016-07-03 14:10:00,2,50000,0,0.00,2,2,0,2,50000,50000,0,50000,0,0,0,0,0.00,0.00,0.00,0.00
2016-07-03 14:20:00,2,50000,0,0.00,2,2,0,2,50000,50000,0,50000,0,0,0,0,0.00,0.00,0.00,0.00
2016-07-03 14:30:00,2,50000,0,0.00,2,2,0,2,50000,50000,0,50000,0,0,0,0,0.00,0.00,0.00,0.00
2016-07-03 14:40:00,2,50000,0,0.00,2,2,0,2,50000,50000,0,50000,0,0,0,0,0.00,0.00,0.00,0.00
2016-07-03 14:50:00,2,50000,0,0.00,2,2,0,2,50000,50000,0,50000,0,0,0,0,0.00,0.00,0.00,0.00
2016-07-03 15:00:00,2,49950,0,0.00,2,2,0,2,49502,50000,149,50000,0,0,0,0,0.00,0.00,0.00,0.00
2016-07-03 15:10:00,2,50000,0,0.00,1,2,0,2,50000,50000,0,50000,0,0,0,0,0.00,0.00,0.00,0.00
2016-07-03 15:20:00,2,50000,0,0.00,2,2,0,2,50000,50000,0,50000,0,0,0,0,0.00,0.00,0.00,0.00
2016-07-03 15:30:00,2,50000,0,0.00,2,2,0,2,50000,50000,0,50000,0,0,0,0,0.00,0.00,0.00,0.00
2016-07-03 15:40:00,2,50000,0,0.00,2,2,0,2,50000,50000,0,50000,0,0,0,0,0.00,0.00,0.00,0.00
2016-07-03 15:50:00,2,50000,0,0.00,2,2,0,2,50000,50000,0,50000,0,0,0,0,0.00,0.00,0.00,0.00
2016-07-03 16:00:00,0,50000,0,0.00,0,0,0,0,50000,50000,0,50000,0,0,0,0,0.00,0.00,0.00,0.00
2016-07-03 16:10:00,0,50000,0,0.00,0,0,0,0,50000,50000,0,50000,0,0,0,0,0.00,0.00,0.00,0.00
2016-07-03 16:20:00,0,50000,0,0.00,0,0,0,0,50000,50000,0,50000,0,0,0,0,0.00,0.00,0.00,0.00
2016-07-03 16:30:00,0,50000,0,0.00,0,0,0,0,50000,50000,0,50000,0,0,0,0,0.00,0.00,0.00,0.00
2016-07-03 16:40:00,1,49679,0,0.00,0,2,1,1,47203,50000,834,50000,0,0,0,0,0.00,0.00,0.00,0.00
2016-07-03 16:50:00,2,50000,0,0.00,2,2,0,2,50000,50000,0,50000,0,0,0,0,0.00,0.00,0.00,0.00
2016-07-03 17:00:00,2,49773,0,0.00,0,2,1,2,47733,50000,680,50000,0,0,0,0,0.00,0.00,0.00,0.00
2016-07-03 17:10:00,0,50000,0,0.00,0,2,1,0,50000,50000,0,50000,0,0,0,0,0.00,0.00,0.00,0.00
2016-07-03 17:20:00,0,50000,0,0.00,0,0,0,0,50000,50000,0,50000,0,0,0,0,0.00,0.00,0.00,0.00
2016-07-03 17:30:00,0,50000,0,0.00,0,0,0,0,50000,50000,0,50000,0,0,0,0,0.00,0.00,0.00,0.00
2016-07-03 17:40:00,0,48632,0,0.00,0,0,0,0,43709,50000,2068,50000,0,0,0,0,0.00,0.00,0.00,0.00
2016-07-03 17:50:00,0,49911,0,0.00,0,0,0,0,49466,50000,182,50000,0,0,0,0,0.00,0.00,0.00,0.00
2016-07-03 18:00:00,0,49905,0,0.00,0,0,0,0,49053,50000,284,50000,0,0,0,0,0.00,0.00,0.00,0.00
2016-07-03 18:10:00,0,50000,0,0.00,0,0,0,0,50000,50000,0,50000,0,0,0,0,0.00,0.00,0.00,0.00
2016-07-03 18:20:00,0,50000,0,0.00,0,0,0,0,50000,50000,0,50000,0,0,0,0,0.00,0.00,0.00,0.00
2016-07-03 18:30:00,0,50000,0,0.00,0,0,0,0,50000,50000,0,50000,0,0,0,0,0.00,0.00,0.00,0.00
2016-07-03 18:40:00,0,49962,0,0.00,0,0,0,0,49619,50000,114,50000,0,0,0,0,0.00,0.00,0.00,0.00
2016-07-03 18:50:00,0,49960,0,0.00,0,0,0,0,49605,50000,118,50000,0,0,0,0,0.00,0.00,0.00,0.00
2016-07-03 19:00:00,0,49702,0,0.00,0,0,0,0,47181,50000,842,50000,0,0,0,0,0.00,0.00,0.00,0.00
2016-07-03 19:10:00,0,50000,0,0.00,0,0,0,0,50000,50000,0,50000,0,0,0,0,0.00,0.00,0.00,0.00
2016-07-03 19:20:00,0,49864,0,0.00,0,0,0,0,49058,50000,296,50000,0,0,0,0,0.00,0.00,0.00,0.00
2016-07-03 19:30:00,0,49968,0,0.00,0,0,0,0,49679,50000,96,50000,0,0,0,0,0.00,0.00,0.00,0.00
2016-07-03 19:40:00,0,49770,0,0.00,0,0,0,0,48063,50000,579,50000,0,0,0,0,0.00,0.00,0.00,0.00
2016-07-03 19:50:00,0,50000,0,0.00,0,0,0,0,50000,50000,0,50000,0,0,0,0,0.00,0.00,0.00,0.00
2016-07-03 20:00:00,0,50000,0,0.00,0,0,0,0,50000,50000,0,50000,0,0,0,0,0.00,0.00,0.00,0.00
2016-07-03 20:10:00,0,50000,0,0.00,0,0,0,0,50000,50000,0,50000,0,0,0,0,0.00,0.00,0.00,0.00
2016-07-03 20:20:00,0,49579,0,0.00,0,0,0,0,48339,50000,653,50000,0,0,0,0,0.00,0.00,0.00,0.00
2016-07-03 20:30:00,0,47829,0,0.00,0,0,0,0,37474,50000,4229,50000,0,0,0,0,0.00,0.00,0.00,0.00
2016-07-03 20:40:00,1,49876,0,0.00,0,2,1,2,48764,50000,371,50000,0,0,0,0,0.00,0.00,0.00,0.00
2016-07-03 20:50:00,2,49297,0,0.00,2,2,0,2,45461,50000,1479,50000,0,0,0,0,0.00,0.00,0.00,0.00
2016-07-03 21:00:00,2,49699,0,0.00,2,2,0,2,46992,50000,902,50000,0,0,0,0,0.00,0.00,0.00,0.00
2016-07-03 21:10:00,2,48885,0,0.00,2,2,0,2,43760,50000,2227,50000,0,0,0,0,0.00,0.00,0.00,0.00
2016-07-03 21:20:00,2,49672,0,0.00,2,2,0,2,46716,50000,985,50000,0,0,0,0,0.00,0.00,0.00,0.00
2016-07-03 21:30:00,2,49869,0,0.00,2,2,0,2,49071,50000,290,50000,0,0,0,0,0.00,0.00,0.00,0.00
2016-07-03 21:40:00,2,47233,0,0.00,2,2,0,2,41570,50000,3334,49620,0,0,0,0,0.00,0.00,0.00,0.00
2016-07-03 21:50:00,2,49462,0,0.00,2,2,0,2,45597,50000,1321,50000,0,0,0,0,0.00,0.00,0.00,0.00
2016-07-03 22:00:00,2,44349,0,0.00,2,2,0,2,33065,50000,5998,46323,0,0,0,0,0.00,0.00,0.00,0.00
2016-07-03 22:10:00,2,47088,0,0.00,2,2,0,2,37774,50000,4715,49610,0,0,0,0,0.00,0.00,0.00,0.00
2016-07-03 22:20:00,2,47656,0,0.00,2,2,0,2,41248,50000,3163,50000,0,0,0,0,0.00,0.00,0.00,0.00
2016-07-03 22:30:00,2,48398,0,0.00,2,2,0,2,41502,50000,2650,50000,0,0,0,0,0.00,0.00,0.00,0.00
2016-07-03 22:40:00,2,46396,0,0.00,2,2,0,2,38566,50000,4090,47642,0,0,0,0,0.00,0.00,0.00,0.00
2016-07-03 22:50:00,2,45281,0,0.00,2,2,0,2,37761,50000,5292,48593,0,0,0,0,0.00,0.00,0.00,0.00
2016-07-03 23:00:00,2,46523,0,0.00,2,2,0,2,38071,50000,5040,50000,0,0,0,0,0.00,0.00,0.00,0.00
2016-07-03 23:10:00,2,45817,0,0.00,2,2,0,2,39255,50000,3423,46590,0,0,0,0,0.00,0.00,0.00,0.00
2016-07-03 23:20:00,2,41019,0,0.00,1,2,0,2,20050,50000,10762,46116,0,0,0,0,0.00,0.00,0.00,0.00
2016-07-03 23:30:00,2,42273,0,0.00,2,2,0,2,33048,48890,4107,41910,0,0,0,0,0.00,0.00,0.00,0.00
2016-07-03 23:40:00,2,40646,0,0.00,2,2,0,2,29164,50000,6942,40790,0,0,0,0,0.00,0.00,0.00,0.00
2016-07-03 23:50:00,2,45750,0,0.00,2,2,0,2,37824,50000,4446,48180,0,0,0,0,0.00,0.00,0.00,0.00
